一网星座-0502星 (ONEWEB-0502 )

导读 | 豆包AI

ONEWEB-0502是英国一网(OneWeb)卫星星座的组网卫星,于2022年10月22日发射入轨。单星质量约147.5千克,运行在高度1200公里的近地轨道,配备Ku/Ka波段天线,依托离子电推进完成轨道提升。 作为OneWeb全球低轨卫星互联网星座的组成部分,它可为全球提供高速低延迟通信服务,支持政府、商业及应急场景的网络接入,是英国低轨通信布局的重要一环,也和星链形成差异化竞争。

基本信息
目录编号:
54120
目录名称:
ONEWEB-0502
国际标识:
2022-138H
轨道中心:
EARTH
卫星名称:
一网星座-0502星
卫星全名:
一网星座-0502星 (ONEWEB-0502 )
卫星状态:
在轨 (已飞行1239 天)
发射日期:
2022-10-22 UTC
国别 :
英国 (GB)
星等 :
--
轨道信息
数据来源 国际轨道数据
星历时间: 2026-03-14T06:13:32+0800
10小时前
查看轨道信息
半长轴: 7563.907km
偏心率: 0.0001651
轨道倾角: 87.923°
近地点辐角 89.629°
升交点赤经 323.932°
平近点角 270.503°
近地点: 1184.521km
远地点: 1187.019km
周期: 109.114分钟
每日圈数: 13.197253
详细信息
平衡模式:
三轴稳定
覆盖范围:
全球
运营商:
一网卫星公司
运营商所在国:
英国
制造商(研发单位):
一网卫星公司
制造商所在国:
英国
使用方式:
暂无
卫星简介
OneWeb卫星网络由648颗重约125公斤的微型卫星组成,运行在1200公里的轨道上。 每颗卫星都能够提供至少每秒8千兆位的吞吐量,以使用其高吞吐量的Ku频段有效载荷为家庭和移动平台提供互联网接入。该卫星仍在工作。
2D轨道图
3D轨道图
轨道高度分析图
轨道倾角分析图
轨道综合分析图
查看轨道综合分析图